Regional Weather Roundup
Issued by NWS

Home | Current Version | Previous Version | Graphics & Text | Print | Product List | Glossary On
Versions: 1 2 3 4 5 6 7 8 9 10 11 12 13 14 15 16 17 18 19 20 21 22 23 24 25 26 27 28 29 30 31 32 33 34 35 36 37 38 39 40 41 42 43 44 45 46 47 48 49 50
003
ASUS43 KLMK 091702
RWRKY
KENTUCKY REGIONAL WEATHER ROUNDUP
NATIONAL WEATHER SERVICE LOUISVILLE KY
1200 PM EST FRI DEC 09 2016

NOTE "FAIR" INDICATES FEW OR NO CLOUDS BELOW 12,000 FEET
WITH NO SIGNIFICANT WEATHER AND/OR OBSTRUCTIONS TO VISIBILITY.

KYZ001>023-026-027-061>063-070>075-091800-
WESTERN AND SOUTH CENTRAL KENTUCKY

CITY           SKY/WX    TMP DP  RH WIND       PRES   REMARKS
PADUCAH        SUNNY     31  14  49 N5        30.64F WCI  26
HENDERSON      PTSUNNY   28  12  50 NW3       30.63F
OWENSBORO      CLOUDY    25  15  66 W8        30.64S WCI  16
HOPKINSVILLE   MOSUNNY   29  15  57 W8        30.62F WCI  21
BOWLING GREEN  SUNNY     31  14  49 VRB5      30.61F WCI  26
GLASGOW        NOT AVBL
$$

KYZ024-025-028>034-038-045-046-053-091800-
NORTH CENTRAL KENTUCKY

CITY           SKY/WX    TMP DP  RH WIND       PRES   REMARKS
LOUISVILLE/SDF FLURRIES  26  12  55 W6        30.60F WCI  19
LOUISVILLE/LOU CLOUDY    25  12  58 NW6       30.61S WCI  18
FORT KNOX      CLOUDY    25  14  63 NW7       30.56F WCI  17
$$

KYZ035>037-039>044-047>052-055>060-089>105-091800-
NORTHEAST KENTUCKY

CITY           SKY/WX    TMP DP  RH WIND       PRES   REMARKS
LEXINGTON      CLOUDY    23  12  62 NW7       30.55F WCI  15
COVINGTON      FLURRIES  23  13  65 W12       30.54F WCI  12
FRANKFORT      CLOUDY    24  12  60 NW6       30.56F WCI  17
$$

KYZ054-064>069-076>088-106>120-091800-
SOUTHEAST KENTUCKY

CITY           SKY/WX    TMP DP  RH WIND       PRES   REMARKS
JACKSON        CLOUDY    23  14  68 VRB3      30.50F
LONDON         CLOUDY    24  12  60 W7        30.53F WCI  16
SOMERSET       CLOUDY    27  14  59 W3        30.57F
MIDDLESBORO    CLOUDY    27  13  56 W5        30.53F WCI  22
MONTICELLO     CLOUDY    28  17  63 VRB6      30.57F WCI  22
$$





USA.gov is the U.S. government's official web portal to all federal, state and local government web resources and services.